Location: Newark
(34.6283°N, 36.0776°E)
Time: 14:00:49
(UTC+00:00)

Tiros 1 despin weight - Pass Details

Date: 28 September 2019
Orbit: 594 x 643 km, 48.2° (Epoch: 15 October)

Event Time Altitude Azimuth Distance (km) Brightness Sun altitude
Rises 09:32:23 0° 300° (WNW) 2,899 ? 53.4°
Reaches altitude 10° 09:35:45 10° 325° (NW) 1,980 ? 53.3°
Maximum altitude 09:38:13 14° 358° (N) 1,705 ? 53.3°
Drops below altitude 10° 09:40:41 10° 32° (NNE) 1,963 ? 53.2°
Sets 09:43:59 0° 57° (ENE) 2,856 ? 53.2°
